Regional Weather Roundup
Issued by NWS

Home | Current Version | Previous Version | Text Only | Print | Product List | Glossary On
Versions: 1 2 3 4 5 6 7 8 9 10 11 12 13 14 15 16 17 18 19 20 21 22 23 24 25 26 27 28 29 30 31 32 33 34 35 36 37 38 39 40 41 42 43 44 45 46 47 48 49 50
000
ASUS42 KFFC 271910
RWRGA
WEATHER ROUNDUP FOR GEORGIA
NATIONAL WEATHER SERVICE PEACHTREE CITY GA
300 PM EDT MON MAR 27 2017

NOTE: "FAIR" INDICATES FEW OR NO CLOUDS BELOW 12,000 FEET WITH NO
SIGNIFICANT WEATHER AND/OR OBSTRUCTIONS TO VISIBILITY.

* = USE WITH CAUTION. THE STATIONS MARKED WITH AN ASTERISK MAY NOT
REPORT WEATHER SUCH AS PRECIPITATION, FOG, OR THUNDER AND ARE NOT
QUALITY CONTROLLED BY NWS.

THE REMARK "TC" DENOTES TEMPERATURE READING IN DEGREES CELSIUS.

GAZ001>058-272000-
NORTH GEORGIA

CITY           SKY/WX    TMP DP  RH WIND       PRES   REMARKS
ATLANTA        PTSUNNY   74  59  59 S8        30.03F
ATHENS         CLOUDY    78  60  53 VRB3      30.05F
CHAMBLEE       PTSUNNY   76  58  53 SW10      30.03F
PEACHTREE CITY CLOUDY    75  59  57 S9        30.04F
ROME           CLOUDY    77  56  48 SW9       29.98F
WEST ATLANTA   CLOUDY    76  57  51 S10       30.02F
GAINESVILLE    PTSUNNY   74  57  55 VRB5      30.06F
CARTERSVILLE   CLOUDY    75  58  55 S9        30.01F


CITY           SKY/WX    TMP DP  RH WIND       PRES   REMARKS
DALTON*        CLOUDY    73  59  60 S7        29.99F
LAWRENCEVILLE* PTSUNNY   73  57  56 S7        30.05F
MARIETTA       CLOUDY    76  57  52 S6        30.02F
KENNESAW*      PTSUNNY   73  57  56 SW7       30.00F
CANTON*        CLOUDY    73  50  43 S7        30.04F
$$

GAZ059>098-102>109-272000-
CENTRAL GEORGIA

CITY           SKY/WX    TMP DP  RH WIND       PRES   REMARKS
AUGUSTA-BUSH   MOSUNNY   82  60  47 MISG      30.02F
AUGUSTA-DANIEL PTSUNNY   82  57  42 VRB3G20   30.04F
COLUMBUS       CLOUDY    79  56  45 S12G18    30.02F
MACON          MOSUNNY   81  59  47 SW12      30.04F
ROBINS AFB     SUNNY     81  58  45 SW9       30.03F


CITY           SKY/WX    TMP DP  RH WIND       PRES   REMARKS
LAGRANGE*      CLOUDY    76  65  68 S7        30.03F
SYLVANIA*      CLOUDY   N/A N/A N/A CALM      30.06F
MILLEDGEVILLE* MOSUNNY   82  63  51 CALM      30.04F
$$

GAZ099>101-110>166-272000-
SOUTH GEORGIA

CITY           SKY/WX    TMP DP  RH WIND       PRES   REMARKS
SAVANNAH       PTSUNNY   79  59  50 SE10      30.06F
VALDOSTA       CLOUDY    79  59  50 CALM      30.06F
ALMA           PTSUNNY   81  60  48 W6        30.06F
ST SIMONS      SUNNY     75  60  59 SE13      30.09F
FT STEWART     PTSUNNY   81  58  46 E6        30.03F
ALBANY         MOSUNNY   83  56  39 S7        30.06F
HUNTER AFB     SUNNY     79  64  61 S9        30.04F
MOODY AFB      MOSUNNY   84  57  39 SW7       30.04F
BRUNSWICK      SUNNY     79  63  57 SE12      30.09F


CITY           SKY/WX    TMP DP  RH WIND       PRES   REMARKS
BAINBRIDGE*    SUNNY     81  57  44 CALM      30.05F
MOULTRIE*      SUNNY     82  55  39 SW7       30.06F
VIDALIA*       PTSUNNY   82  59  44 CALM      30.06F
WAYCROSS*      MOSUNNY   83  62  48 W6        30.05F
DOUGLAS*       MOSUNNY   81  54  39 NW5       30.07F
$$




USA.gov is the U.S. government's official web portal to all federal, state and local government web resources and services.